Baker, MT

7:55 AM MDT on September 29, 2016 (GMT -0600)
Baker Municipal

Weather History for KBHK - August, 2014

Change the Weather History Date:

Saturday, August 16, 2014

  Actual Average Record
Temperature  
Mean Temperature 70 °F -  
Max Temperature 84 °F 84 °F 100 °F (2003)
Min Temperature 57 °F 46 °F 44 °F (2012)
Cooling Degree Days 4    
Growing Degree Days 20 (Base 50)    
Moisture  
Dew Point 58 °F    
Average Humidity 70    
Maximum Humidity 93    
Minimum Humidity 36    
Precipitation  
Precipitation 0.26 in - - ()
Sea Level Pressure  
Sea Level Pressure 29.98 in    
Wind  
Wind Speed 9 mph (NNW)    
Max Wind Speed 43 mph    
Max Gust Speed 64 mph    
Visibility 9 miles    
Events Rain , Thunderstorm    
Averages and records for this station are not official NWS values.
T = Trace of Precipitation, MM = Missing Value Source: NWS Daily Summary

Daily Weather History Graph

Daily Weather History Graph

Search for Another Location

Airport or City:

Trip Planner

Search our weather history database for the weather conditions in past years. The results will help you decide how hot, cold, wet, or windy it might be!

Date:

Astronomy

Aug. 16, 2014 Rise Set
Actual Time 5:57 AM MDT 8:04 PM MDT
Civil Twilight 5:24 AM MDT 8:37 PM MDT
Nautical Twilight 4:43 AM MDT 9:17 PM MDT
Astronomical Twilight 3:58 AM MDT 10:02 PM MDT
Moon 11:23 PM MDT (8/16) 1:11 PM MDT (8/16)
Length of Visible Light 15h 12m
Length of Day
14h 07m
Waning Gibbous, 58% of the Moon is Illuminated
Aug 16
Waning Gibbous
Aug 17
Last Quarter
Aug 25
New
Sep 2
First Quarter
Sep 8
Full

Hourly Weather History & Observations

Time (MDT) Temp. Heat Index Dew Point Humidity Pressure Visibility Wind Dir Wind Speed Gust Speed Precip Events Conditions
12:51 AM 64.0 °F - 60.1 °F 87% 29.97 in 10.0 mi WNW 4.6 mph - 0.00 in   Overcast
1:57 AM 64.9 °F - 62.1 °F 90% 30.02 in 10.0 mi WNW 10.4 mph 17.3 mph N/A   Mostly Cloudy
2:51 AM 63.0 °F - 59.0 °F 87% 29.96 in 10.0 mi North 10.4 mph - N/A   Scattered Clouds
3:51 AM 62.1 °F - 55.0 °F 78% 29.95 in 10.0 mi North 6.9 mph - N/A   Clear
4:51 AM 59.0 °F - 55.0 °F 87% 29.96 in 10.0 mi West 11.5 mph - N/A   Clear
5:51 AM 57.0 °F - 55.0 °F 93% 29.97 in 10.0 mi West 6.9 mph - N/A   Clear
7:51 AM 63.0 °F - 55.9 °F 78% 30.01 in 10.0 mi WNW 10.4 mph - N/A   Clear
9:51 AM 71.1 °F - 57.9 °F 63% 29.99 in 10.0 mi WNW 8.1 mph - N/A   Clear
10:51 AM 75.0 °F - 57.0 °F 53% 29.98 in 10.0 mi NW 10.4 mph - N/A   Clear
11:51 AM 78.1 °F - 55.0 °F 45% 29.97 in 10.0 mi NW 11.5 mph - N/A   Clear
12:51 PM 81.0 °F - 52.0 °F 36% 29.95 in 10.0 mi NNW 12.7 mph - N/A   Clear
2:51 PM 82.9 °F 81.8 °F 53.1 °F 36% 29.94 in 10.0 mi NNW 9.2 mph - N/A   Clear
3:51 PM 82.9 °F 82.0 °F 55.0 °F 38% 29.94 in 10.0 mi North - - N/A   Clear
4:51 PM 82.9 °F 82.1 °F 55.9 °F 39% 29.93 in 10.0 mi Calm Calm - N/A   Clear
5:56 PM 72.0 °F - 57.0 °F 59% 30.04 in 10.0 mi WNW 18.4 mph 24.2 mph N/A Thunderstorm Thunderstorm
6:00 PM 68.0 °F - 59.0 °F 73% 30.02 in 0.8 mi North 42.6 mph 64.4 mph 0.18 in Rain , Thunderstorm Light Thunderstorms and Rain
6:12 PM 64.9 °F - 60.1 °F 84% 30.02 in 3.0 mi NE 13.8 mph 27.6 mph 0.26 in Rain , Thunderstorm Thunderstorms and Rain
6:29 PM 69.1 °F - 62.1 °F 78% 30.01 in 10.0 mi ENE 8.1 mph - 0.26 in Thunderstorm Mostly Cloudy
6:42 PM 70.0 °F - 62.1 °F 76% 30.01 in 10.0 mi ENE 8.1 mph - 0.26 in   Partly Cloudy
6:51 PM 71.1 °F - 61.0 °F 70% 29.97 in 10.0 mi NNE 5.8 mph - 0.26 in   Clear
8:51 PM 63.0 °F - 59.0 °F 87% 29.98 in 10.0 mi South 5.8 mph - N/A   Clear
9:51 PM 61.0 °F - 57.9 °F 90% 29.98 in 10.0 mi NW 3.5 mph - N/A   Partly Cloudy
10:51 PM 63.0 °F - 60.1 °F 90% 29.96 in 10.0 mi ESE 3.5 mph - N/A   Mostly Cloudy